Weather History for Cando, ND

Change the Weather History Date:

Tuesday, September 11, 2012

  Actual Average (KDVL) Record (KDVL)
Temperature  
Mean Temperature 54 °F -  
Max Temperature 66 °F 70 °F 93 °F (1948)
Min Temperature 41 °F 46 °F 25 °F (1964)
Degree Days  
Heating Degree Days 12    
Growing Degree Days 4 (Base 50)    
Moisture  
Dew Point 38 °F    
Average Humidity 47    
Maximum Humidity 88    
Minimum Humidity 26    
Precipitation  
Precipitation 0.00 in - - ()
Sea Level Pressure  
Sea Level Pressure 29.78 in    
Wind  
Wind Speed 11 mph (NW)    
Max Wind Speed 23 mph    
Max Gust Speed 30 mph    
Visibility 10 miles    
Events      
Averages and records for this station are not official NWS values.
T = Trace of Precipitation, MM = Missing Value Source: NWS Daily Summary

Daily Weather History Graph

Daily Weather History Graph

Search for Another Location

Airport:

Trip Planner

Search our weather history database for the weather conditions in past years. The results will help you decide how hot, cold, wet, or windy it might be!

Date:

Astronomy

Sep. 11, 2012 Rise Set
Actual Time 7:08 AM CDT 7:56 PM CDT
Civil Twilight 6:37 AM CDT 8:28 PM CDT
Nautical Twilight 5:59 AM CDT 9:06 PM CDT
Astronomical Twilight 5:19 AM CDT 9:45 PM CDT
Moon 2:09 AM CDT (9/11) 5:23 PM CDT (9/11)
Length of Visible Light 13h 51m
Length of Day
12h 47m
Waning Crescent, 21% of the Moon is Illuminated
Sep 11
Waning Crescent
Sep 15
New
Sep 22
First Quarter
Sep 29
Full
Oct 8
Last Quarter

Hourly Weather History & Observations

Time (CDT) Temp. Windchill Dew Point Humidity Pressure Visibility Wind Dir Wind Speed Gust Speed Precip Events Conditions
12:15 AM 59.0 °F - 48.2 °F 67% 29.61 in 10.0 mi SE 6.9 mph - N/A   Clear
12:35 AM 57.2 °F - 50.0 °F 77% 29.61 in 10.0 mi SE 6.9 mph - N/A   Clear
12:55 AM 57.2 °F - 53.6 °F 88% 29.62 in 10.0 mi South 6.9 mph - N/A   Clear
1:15 AM 57.2 °F - 51.8 °F 82% 29.61 in 10.0 mi SSE 3.5 mph - N/A   Clear
1:35 AM 57.2 °F - 51.8 °F 82% 29.62 in 10.0 mi Calm Calm - N/A   Clear
1:55 AM 57.2 °F - 53.6 °F 88% 29.62 in 10.0 mi Calm Calm - N/A   Clear
2:15 AM 59.0 °F - 53.6 °F 82% 29.62 in 10.0 mi West 3.5 mph - N/A   Clear
2:35 AM 55.4 °F - 50.0 °F 82% 29.62 in 10.0 mi WNW 5.8 mph - N/A   Clear
2:55 AM 55.4 °F - 50.0 °F 82% 29.65 in 8.0 mi WNW 9.2 mph 16.1 mph N/A   Clear
3:15 AM 59.0 °F - 48.2 °F 67% 29.64 in 10.0 mi NW 3.5 mph - N/A   Partly Cloudy
3:35 AM 57.2 °F - 48.2 °F 72% 29.65 in 10.0 mi West 5.8 mph - N/A   Partly Cloudy
3:55 AM 57.2 °F - 48.2 °F 72% 29.65 in 10.0 mi West 9.2 mph - N/A   Clear
4:15 AM 60.8 °F - 46.4 °F 59% 29.67 in 10.0 mi WNW 9.2 mph - N/A   Clear
4:35 AM 62.6 °F - 46.4 °F 55% 29.69 in 10.0 mi WNW 10.4 mph - N/A   Clear
4:55 AM 62.6 °F - 48.2 °F 59% 29.70 in 10.0 mi West 10.4 mph - N/A   Partly Cloudy
5:15 AM 60.8 °F - 48.2 °F 63% 29.72 in 10.0 mi West 6.9 mph - N/A   Mostly Cloudy
5:35 AM 62.6 °F - 46.4 °F 55% 29.68 in 10.0 mi NNW 10.4 mph - N/A   Mostly Cloudy
5:55 AM 62.6 °F - 42.8 °F 48% 29.68 in 10.0 mi North 12.7 mph - N/A   Partly Cloudy
6:15 AM 64.4 °F - 39.2 °F 40% 29.67 in 10.0 mi North 15.0 mph - N/A   Mostly Cloudy
6:35 AM 64.4 °F - 39.2 °F 40% 29.67 in 10.0 mi North 12.7 mph 20.7 mph N/A   Mostly Cloudy
6:55 AM 64.4 °F - 39.2 °F 40% 29.70 in 10.0 mi NNW 16.1 mph 21.9 mph N/A   Scattered Clouds
7:15 AM 64.4 °F - 39.2 °F 40% 29.67 in 10.0 mi North 19.6 mph 25.3 mph N/A   Partly Cloudy
7:35 AM 62.6 °F - 37.4 °F 39% 29.73 in 10.0 mi NNW 16.1 mph 24.2 mph N/A   Partly Cloudy
7:55 AM 62.6 °F - 39.2 °F 42% 29.73 in 10.0 mi NNW 17.3 mph 21.9 mph N/A   Mostly Cloudy
8:15 AM 60.8 °F - 39.2 °F 45% 29.73 in 10.0 mi NNW 12.7 mph 18.4 mph N/A   Scattered Clouds
8:35 AM 60.8 °F - 37.4 °F 42% 29.73 in 10.0 mi NNW 17.3 mph 23.0 mph N/A   Clear
8:55 AM 62.6 °F - 37.4 °F 39% 29.75 in 10.0 mi NNW 17.3 mph 21.9 mph N/A   Clear
9:15 AM 62.6 °F - 37.4 °F 39% 29.74 in 10.0 mi NNW 21.9 mph 26.5 mph N/A   Clear
9:35 AM 62.6 °F - 37.4 °F 39% 29.75 in 10.0 mi NNW 16.1 mph 27.6 mph N/A   Clear
9:55 AM 62.6 °F - 37.4 °F 39% 29.76 in 10.0 mi NNW 17.3 mph 23.0 mph N/A   Clear
10:15 AM 62.6 °F - 37.4 °F 39% 29.77 in 10.0 mi North 20.7 mph 26.5 mph N/A   Clear
10:35 AM 60.8 °F - 37.4 °F 42% 29.79 in 10.0 mi North 17.3 mph 27.6 mph N/A   Clear
10:55 AM 62.6 °F - 37.4 °F 39% 29.80 in 10.0 mi NNW 18.4 mph 25.3 mph N/A   Clear
11:15 AM 62.6 °F - 39.2 °F 42% 29.81 in 10.0 mi NNW 20.7 mph 28.8 mph N/A   Clear
11:35 AM 60.8 °F - 39.2 °F 45% 29.81 in 10.0 mi NNW 19.6 mph 27.6 mph N/A   Clear
11:55 AM 62.6 °F - 37.4 °F 39% 29.81 in 10.0 mi NNW 23.0 mph 29.9 mph N/A   Clear
12:15 PM 62.6 °F - 37.4 °F 39% 29.81 in 10.0 mi NNW 23.0 mph 28.8 mph N/A   Clear
12:35 PM 62.6 °F - 32.0 °F 32% 29.81 in 10.0 mi NNW 23.0 mph 29.9 mph N/A   Clear
12:55 PM 62.6 °F - 35.6 °F 37% 29.81 in 10.0 mi NNW 20.7 mph 26.5 mph N/A   Clear
1:15 PM 64.4 °F - 35.6 °F 34% 29.82 in 10.0 mi NNW 20.7 mph 26.5 mph N/A   Clear
1:35 PM 64.4 °F - 35.6 °F 34% 29.82 in 10.0 mi NNW 16.1 mph - N/A   Clear
1:55 PM 64.4 °F - 35.6 °F 34% 29.83 in 10.0 mi NW 13.8 mph 18.4 mph N/A   Clear
2:15 PM 64.4 °F - 32.0 °F 30% 29.82 in 10.0 mi NNW 18.4 mph 24.2 mph N/A   Clear
2:35 PM 66.2 °F - 32.0 °F 28% 29.82 in 10.0 mi NW 17.3 mph 21.9 mph N/A   Clear
2:55 PM 66.2 °F - 32.0 °F 28% 29.83 in 10.0 mi NNW 13.8 mph 19.6 mph N/A   Clear
3:15 PM 66.2 °F - 32.0 °F 28% 29.83 in 10.0 mi NW 11.5 mph 21.9 mph N/A   Clear
3:35 PM 66.2 °F - 32.0 °F 28% 29.83 in 10.0 mi NW 18.4 mph 21.9 mph N/A   Clear
3:55 PM 66.2 °F - 30.2 °F 26% 29.83 in 10.0 mi WNW 19.6 mph 27.6 mph N/A   Clear
4:15 PM 66.2 °F - 32.0 °F 28% 29.83 in 10.0 mi NW 15.0 mph - N/A   Clear
4:35 PM 66.2 °F - 32.0 °F 28% 29.83 in 10.0 mi WNW 19.6 mph 26.5 mph N/A   Clear
4:55 PM 66.2 °F - 32.0 °F 28% 29.84 in 10.0 mi NW 23.0 mph 28.8 mph N/A   Clear
5:15 PM 66.2 °F - 32.0 °F 28% 29.83 in 10.0 mi NW 16.1 mph 23.0 mph N/A   Clear
5:35 PM 66.2 °F - 32.0 °F 28% 29.84 in 10.0 mi West 18.4 mph 25.3 mph N/A   Clear
5:55 PM 64.4 °F - 28.4 °F 26% 29.84 in 10.0 mi WNW 19.6 mph 25.3 mph N/A   Clear
6:15 PM 64.4 °F - 28.4 °F 26% 29.85 in 10.0 mi WNW 18.4 mph 23.0 mph N/A   Clear
6:35 PM 64.4 °F - 30.2 °F 28% 29.86 in 10.0 mi WNW 11.5 mph - N/A   Clear
6:55 PM 64.4 °F - 30.2 °F 28% 29.86 in 10.0 mi WNW 12.7 mph - N/A   Clear
7:15 PM 64.4 °F - 30.2 °F 28% 29.86 in 10.0 mi WNW 11.5 mph 16.1 mph N/A   Clear
7:35 PM 62.6 °F - 28.4 °F 27% 29.86 in 10.0 mi WNW 11.5 mph - N/A   Clear
7:55 PM 60.8 °F - 30.2 °F 31% 29.87 in 10.0 mi West 8.1 mph - N/A   Clear
8:15 PM 57.2 °F - 32.0 °F 38% 29.88 in 10.0 mi WSW 6.9 mph - N/A   Clear
8:35 PM 55.4 °F - 30.2 °F 38% 29.89 in 10.0 mi WSW 8.1 mph - N/A   Clear
8:55 PM 53.6 °F - 32.0 °F 44% 29.89 in 10.0 mi SW 8.1 mph - N/A   Clear
9:15 PM 50.0 °F - 32.0 °F 50% 29.91 in 10.0 mi WSW 6.9 mph - N/A   Clear
9:35 PM 48.2 °F - 32.0 °F 54% 29.91 in 10.0 mi SW 8.1 mph - N/A   Clear
9:55 PM 46.4 °F 42.4 °F 32.0 °F 57% 29.92 in 10.0 mi WSW 8.1 mph - N/A   Scattered Clouds
10:15 PM 46.4 °F 42.4 °F 32.0 °F 57% 29.92 in 10.0 mi WSW 8.1 mph - N/A   Scattered Clouds
10:35 PM 46.4 °F 41.9 °F 32.0 °F 57% 29.93 in 10.0 mi WSW 9.2 mph - N/A   Partly Cloudy
10:55 PM 44.6 °F 40.2 °F 33.8 °F 66% 29.94 in 10.0 mi WSW 8.1 mph - N/A   Clear
11:35 PM 41.0 °F 35.8 °F 32.0 °F 70% 29.95 in 10.0 mi WSW 8.1 mph - N/A   Clear
11:55 PM 41.0 °F 35.8 °F 32.0 °F 70% 29.96 in 10.0 mi WSW 8.1 mph - N/A   Partly Cloudy